RH
73 73 85 70 80 53 36 18 16 12 9 7 4 4 3 3 4 8 16 18 18 17 18 18 18 21 18 17 22 24 27 22 23 22 21 20 20 19 22 33 34 34 33 42 48
68 66 68 84 82 81 60 60 36 16 14 12 9 6 4 3 3 4 9 18 19 19 19 20 18 16 23 26 30 29 25 22 24 23 22 24 22 21 21 28 35 34 33 30 33
35 52 57 68 74 77 74 65 57 57 38 15 14 10 8 4 3 3 4 9 16 19 20 20 21 18 16 26 28 29 28 24 25 23 21 23 22 23 23 21 24 24 30 32 32
16 20 29 37 47 58 76 71 63 57 59 57 36 14 11 10 7 8 4 5 10 16 20 21 22 23 19 18 23 26 27 26 24 23 22 20 22 23 22 22 22 23 27 33 36
13 15 13 14 17 24 36 48 65 65 58 57 55 53 24 12 10 8 7 7 6 9 14 19 21 23 23 22 24 26 24 23 23 24 23 22 19 22 22 24 22 24 25 34 42
7 7 8 9 10 11 13 15 19 37 57 65 53 52 49 31 20 16 9 6 7 8 9 13 18 23 30 32 32 25 26 23 23 22 24 23 23 22 15 21 21 26 27 26 26
6 6 6 5 5 6 7 9 10 12 13 22 47 49 47 39 44 29 14 10 6 5 7 10 12 20 28 29 26 30 29 25 24 22 22 24 23 19 15 14 17 22 25 26 26
3 3 3 3 4 4 6 6 6 4 7 13 20 21 34 33 44 48 47 20 12 10 6 5 11 13 20 26 28 30 31 31 20 20 19 22 22 14 14 17 18 20 20 23 25
3 3 3 3 3 3 3 4 4 4 4 5 5 10 28 25 22 34 49 44 43 15 11 7 6 14 16 24 25 30 33 29 26 25 24 22 21 17 17 20 19 20 19 20 21
3 3 3 3 2 2 2 2 2 3 3 4 6 7 10 17 21 21 21 38 49 52 21 12 8 9 9 25 33 22 17 19 19 16 19 21 21 19 18 19 19 22 19 20 21
4 4 4 3 3 3 4 4 4 7 4 5 4 6 8 16 17 15 17 25 36 49 57 23 12 9 6 6 8 16 29 27 24 23 22 21 20 17 17 20 21 21 22 22 21
5 4 4 4 5 5 7 7 9 11 6 5 5 3 3 6 8 15 25 27 30 32 65 40 29 18 11 13 15 19 21 17 16 22 22 19 20 19 19 18 18 19 21 22 21
7 6 6 6 6 6 7 10 11 11 9 3 3 4 4 4 4 7 23 39 52 40 50 62 41 38 23 22 22 24 28 27 26 24 24 20 21 20 17 18 21 22 22 22 22
9 8 8 7 7 9 15 16 14 17 11 4 5 9 7 4 5 4 11 43 57 40 61 59 53 45 29 27 23 27 23 26 24 23 24 24 25 18 19 18 17 17 19 20 20
11 10 9 8 14 15 12 22 29 24 57 28 29 35 25 19 37 72 22 28 31 58 55 53 39 46 37 30 25 23 22 22 24 24 24 23 24 22 21 21 20 19 17 18 19
15 11 9 9 10 36 21 26 31 52 83 22 38 52 45 29 33 49 61 61 67 59 62 55 50 48 45 36 27 23 22 22 22 24 28 23 24 23 23 23 23 18 17 18 18
17 20 20 20 24 26 29 45 54 100 32 26 39 54 56 69 54 56 53 86 77 80 77 53 48 53 45 45 41 39 29 30 33 29 30 26 26 23 21 21 20 19 18 13 15
19 28 36 31 52 50 49 87 98 56 27 25 36 30 31 50 46 52 60 65 62 68 78 74 68 49 35 50 49 45 45 45 65 78 41 26 26 24 23 22 19 21 19 14 17
12 19 26 39 46 57 83 100 90 64 44 42 32 30 27 28 27 32 46 51 55 60 74 73 65 39 45 54 48 40 44 45 45 42 55 48 42 34 30 26 27 24 19 18 15
33 26 10 42 50 49 92 99 98 70 58 55 54 41 36 31 29 26 22 22 26 49 61 68 72 42 47 52 42 52 47 45 44 64 80 74 62 48 27 32 26 25 22 22 20
36 35 32 16 48 72 100 100 99 86 67 67 52 54 47 49 40 32 30 26 25 40 44 52 69 60 63 62 66 42 52 46 49 50 80 90 58 38 30 34 26 21 22 24 23
34 41 39 48 77 87 89 90 99 100 81 79 78 67 48 38 54 45 40 38 29 35 36 57 77 81 72 56 55 66 69 61 65 86 77 72 62 36 40 37 28 28 34 29 25
35 36 49 87 97 96 99 100 86 100 100 93 78 71 62 79 76 67 52 29 36 37 41 45 70 93 62 50 65 77 82 92 90 66 96 99 81 28 35 32 27 33 32 31 25
61 87 51 63 83 99 99 100 99 100 100 100 78 74 84 78 75 76 69 71 44 35 35 48 52 75 88 74 67 75 65 64 91 99 99 99 91 44 46 54 31 25 34 34 39
58 75 86 66 58 53 98 100 100 100 100 100 88 84 82 80 71 84 82 74 73 68 58 51 60 64 60 71 80 76 74 58 53 72 99 93 94 86 45 55 53 38 29 38 42
42 61 58 58 74 81 74 81 99 94 100 99 97 83 82 80 82 77 69 59 72 61 73 71 70 81 75 62 63 71 82 62 60 70 46 68 72 67 53 78 64 51 35 42 44
36 39 55 77 73 71 75 83 68 72 75 71 100 96 87 95 93 90 86 84 88 91 87 87 87 92 93 70 86 87 65 63 57 47 43 64 62 52 53 50 56 58 50 46 44
Wind_Speed
32 33 30 30 27 27 24 25 23 21 20 19 19 19 20 18 20 21 20 20 18 13 10 7 4 6 6 8 6 6 12 9 10 25 6 5 4 6 11 9 12 15 8 6 5
35 36 37 30 30 30 29 26 26 23 23 20 21 21 21 20 19 21 22 22 20 17 13 11 9 10 4 4 1 7 11 7 12 17 8 6 4 6 13 10 7 13 16 18 15
37 36 37 36 35 35 31 29 30 27 25 24 23 23 23 21 19 22 23 23 22 21 17 16 12 14 12 10 10 11 20 12 15 11 14 1 5 5 5 10 12 15 20 22 21
35 35 35 36 38 39 36 33 32 31 27 26 26 26 25 22 14 19 21 25 23 23 22 19 16 15 14 13 9 12 17 17 9 15 17 13 8 9 9 12 11 13 16 24 21
34 35 34 34 35 35 36 35 38 35 31 29 28 29 28 28 22 23 19 20 23 24 23 21 20 17 17 14 10 14 15 20 20 12 15 19 13 17 17 13 17 13 14 20 21
32 33 32 32 33 33 33 33 35 36 34 34 32 32 33 36 24 27 26 22 22 21 25 23 21 18 18 16 20 18 19 17 19 23 17 18 22 16 17 16 19 10 14 18 23
32 32 33 32 32 32 32 33 34 34 35 31 34 37 39 37 28 30 27 23 25 25 22 23 27 24 21 23 23 24 26 27 22 23 24 17 24 25 20 16 17 25 19 21 23
28 28 29 30 31 31 32 33 33 32 32 34 36 39 45 38 36 38 30 25 26 25 26 25 23 30 29 29 21 19 23 26 31 27 24 19 31 27 22 24 21 22 25 28 30
24 25 25 24 25 27 28 29 31 31 31 32 34 37 49 48 37 35 36 32 31 29 26 26 28 29 26 30 32 31 24 22 25 21 22 25 34 26 24 23 27 27 32 30 28
21 22 20 19 20 19 22 22 26 28 29 31 33 33 36 30 37 40 37 36 35 32 30 30 30 32 33 30 30 30 36 37 37 34 25 33 39 35 35 27 25 20 26 30 27
18 17 13 13 11 10 11 14 18 21 25 26 32 33 31 33 39 41 36 29 32 39 36 34 32 42 41 41 37 32 22 29 29 23 29 34 38 33 28 30 27 28 25 30 31
17 16 13 13 10 10 11 14 10 19 25 23 25 35 29 33 38 34 28 31 34 36 33 31 43 44 37 33 30 31 31 40 40 34 32 39 41 35 28 39 33 32 30 31 32
20 17 14 13 11 11 12 10 12 17 25 30 26 31 26 29 37 36 30 27 30 31 34 40 48 40 38 34 30 34 38 40 40 31 31 36 44 44 39 30 30 32 29 30 30
23 21 18 15 14 13 11 8 10 15 18 23 20 21 21 31 37 30 33 26 29 35 30 25 39 38 34 34 31 38 34 38 39 33 31 30 28 49 45 40 37 38 35 38 40
24 23 19 17 14 15 11 9 5 8 5 4 6 7 6 16 10 0 16 35 34 31 14 29 40 43 43 43 37 40 31 35 38 38 37 37 25 58 43 43 36 34 37 44 42
24 23 20 18 14 12 5 9 7 2 7 4 8 3 4 3 14 9 10 29 24 32 26 34 31 30 35 41 39 37 39 38 37 40 28 48 34 54 47 44 42 41 38 38 40
21 21 18 17 14 16 12 11 6 7 3 7 6 3 3 3 4 6 8 11 16 20 27 37 44 40 35 36 32 38 34 26 19 22 18 39 27 50 30 22 34 37 39 43 42
20 20 18 14 16 13 17 17 11 3 13 7 7 6 7 9 9 5 13 12 17 21 19 17 16 21 40 45 32 34 32 23 19 11 22 30 30 48 51 51 49 41 45 38 38
18 21 19 17 18 18 19 24 10 18 4 8 10 9 10 9 9 10 13 17 20 22 27 12 28 35 27 20 30 45 37 49 36 29 22 41 53 35 43 54 47 45 46 41 45
17 17 15 20 21 24 26 31 23 16 9 4 8 5 11 11 15 15 17 14 19 19 22 29 32 38 38 34 40 34 41 32 36 16 19 17 30 35 64 41 29 24 27 29 38
15 13 12 20 26 30 37 34 29 26 20 14 16 18 20 22 21 23 23 24 18 18 19 30 22 45 33 30 39 41 36 35 38 27 9 8 21 51 67 60 49 36 37 34 39
15 14 15 22 29 36 41 39 37 22 25 25 23 28 32 30 27 28 30 27 25 24 24 19 14 28 42 43 35 34 41 39 26 22 23 30 34 50 28 31 40 49 36 36 33
17 16 16 20 33 38 36 33 39 32 29 35 32 28 26 27 31 31 35 33 31 30 19 28 15 13 31 23 7 19 17 18 28 36 34 12 17 60 59 58 47 39 36 24 29
18 19 22 29 34 32 37 40 36 29 31 33 40 36 32 33 30 39 39 34 27 32 30 27 25 23 23 32 34 38 42 39 40 25 22 33 41 60 54 49 50 52 28 15 10
23 25 22 23 34 39 37 33 29 35 38 29 36 34 33 41 43 41 36 32 24 27 29 30 29 30 34 35 30 31 37 43 41 52 40 36 34 46 53 49 47 51 42 39 27
28 30 31 36 31 33 33 43 44 41 36 36 37 34 34 42 36 39 37 39 37 33 30 29 34 29 42 41 41 41 32 38 34 36 46 43 36 38 50 43 41 48 45 36 34
29 29 30 33 33 38 41 39 41 37 39 39 41 37 39 35 33 36 36 40 40 37 37 35 34 31 34 38 30 28 42 34 34 31 33 35 44 45 40 37 47 30 37 45 44
Wind_Direction
254 253 253 251 253 250 250 256 257 254 253 264 262 262 255 242 237 235 236 237 235 231 234 234 204 222 202 187 164 187 250 252 336 352 157 194 209 254 187 165 237 205 240 270 222
251 253 255 252 254 252 247 251 255 254 256 256 261 261 263 251 244 241 235 234 242 235 235 239 227 205 257 168 181 260 273 255 310 339 4 349 9 194 206 175 230 245 257 260 255
251 250 249 251 251 255 252 248 252 253 255 256 258 256 260 261 254 246 239 233 236 234 234 238 239 260 228 223 183 225 260 278 300 311 314 210 51 184 221 245 232 267 256 259 261
249 250 251 249 247 250 252 251 250 253 254 256 259 258 254 257 260 247 241 241 238 233 235 237 239 244 245 238 196 252 250 268 277 290 294 281 207 225 223 246 240 287 271 256 248
246 246 246 248 251 249 250 254 257 250 252 254 257 260 256 252 247 258 247 244 245 242 237 236 236 241 245 247 223 240 254 268 269 263 282 288 270 231 220 226 236 296 264 252 245
244 247 247 249 249 252 251 250 253 254 253 254 253 256 257 254 253 250 248 243 252 244 240 236 240 234 241 235 241 229 247 246 255 252 259 272 278 272 249 243 220 254 268 259 269
247 247 249 249 251 252 252 251 251 253 253 250 253 256 255 254 254 258 251 248 246 249 247 242 234 225 227 241 239 240 254 235 239 246 246 253 268 264 267 257 244 225 247 266 263
250 249 251 253 253 252 253 255 254 253 251 252 256 255 260 260 250 255 257 253 249 246 246 239 244 240 236 237 231 225 231 248 239 251 258 257 259 269 271 265 258 266 242 244 255
251 252 251 253 255 257 257 257 258 259 256 253 252 251 254 257 254 256 254 250 250 248 247 239 239 239 239 241 246 237 246 246 258 255 264 255 260 280 277 278 249 270 256 243 256
249 250 251 251 252 253 256 260 260 259 259 253 252 253 250 254 257 251 249 245 246 246 245 241 235 239 239 233 233 241 243 249 256 262 261 258 261 263 268 266 255 271 241 242 253
240 240 235 236 236 243 254 256 267 267 259 255 255 249 244 249 255 254 250 241 236 237 237 240 235 239 244 244 246 248 245 255 259 259 264 271 265 265 250 253 262 248 241 237 261
237 235 225 229 233 246 259 272 293 279 271 256 254 255 248 252 253 253 250 246 243 238 230 223 238 246 251 250 248 250 251 251 255 248 251 256 269 271 268 252 256 250 248 258 261
239 238 236 239 243 252 263 279 289 293 290 263 260 258 258 249 253 246 248 241 234 240 234 232 252 256 249 249 243 238 244 254 259 267 266 266 276 270 255 255 246 247 247 251 254
240 240 236 234 238 241 244 268 283 293 301 286 277 263 243 241 249 257 234 234 225 239 235 234 248 245 241 249 246 242 242 256 263 266 264 258 273 264 263 256 252 252 254 254 250
240 242 240 236 234 240 255 238 243 301 336 6 267 257 231 227 224 238 215 226 230 229 218 225 236 239 241 241 239 247 255 255 259 263 266 261 254 261 262 262 251 258 255 256 261
237 237 234 236 231 232 244 227 208 243 252 110 201 219 282 268 223 238 145 207 223 229 224 230 230 235 246 253 247 249 253 255 262 260 256 257 247 267 255 255 258 247 249 251 257
234 233 227 220 216 216 204 212 195 221 144 175 185 203 277 266 325 288 224 214 226 233 239 246 243 236 235 252 246 250 252 254 266 253 249 255 247 251 260 260 263 268 260 261 259
231 229 221 209 206 207 199 191 213 245 244 156 178 270 260 255 264 266 251 236 252 257 254 260 289 261 253 243 260 257 251 251 242 245 266 268 248 246 258 263 268 271 265 257 259
230 228 220 205 204 206 203 209 228 220 45 311 269 298 283 236 281 272 251 246 253 241 241 255 259 275 258 263 259 254 253 247 264 263 246 249 250 259 258 261 266 262 261 267 257
233 231 217 209 211 212 218 226 227 191 199 249 303 283 294 292 300 300 277 270 273 253 255 263 269 278 278 270 250 258 259 252 242 244 251 251 250 245 248 248 254 246 265 266 271
239 231 218 212 212 217 225 230 238 225 213 249 242 259 261 284 282 284 285 278 273 287 290 272 262 277 279 267 266 258 265 260 258 256 231 248 241 253 255 250 247 245 258 274 273
235 224 222 216 209 225 231 233 234 236 236 250 259 266 263 265 271 271 277 265 267 297 318 317 282 276 278 284 282 264 265 260 275 261 249 242 252 251 260 271 268 263 270 265 262
244 241 222 215 225 230 235 250 252 241 240 245 242 248 260 271 284 282 274 257 269 283 295 311 296 318 305 302 300 264 263 282 291 276 245 248 253 258 261 258 255 247 278 284 271
240 243 231 227 234 244 246 249 249 255 256 251 262 263 259 260 257 269 273 282 273 268 271 296 287 273 262 273 288 292 290 295 301 296 290 250 260 272 268 266 259 253 238 271 320
240 234 241 243 243 245 242 250 253 257 257 254 267 264 265 262 255 266 272 273 275 274 281 280 285 277 270 274 281 278 284 290 285 286 290 295 277 270 273 264 269 268 248 252 285
243 245 245 248 247 251 250 255 252 256 253 258 262 265 267 262 265 273 274 273 274 275 278 280 282 287 281 270 275 286 280 277 285 283 279 285 285 281 273 265 269 270 267 271 258
254 258 259 259 255 252 249 259 263 268 267 263 260 268 262 269 276 273 270 271 271 274 275 276 281 285 282 287 298 275 263 270 268 274 285 283 283 275 280 282 271 266 269 265 262